[Date Prev][Date Next][Thread Prev][Thread Next] - [Date Index][Thread Index][Author Index]
2 Line ISS Keps 12-23
- Subject: [sarex] 2 Line ISS Keps 12-23
- From: "Dave Larsen PhD" <doc@xxxxxxxxxxx>
- Date: Sun, 23 Dec 2001 07:46:13 -0800
ISS
1 25544U 98067A 01357.14520821 .00017924 00000-0 21877-3 0 8764
2 25544 51.6376 217.9059 0002463 55.3275 89.4102 15.60530293176568
----
Via the sarex mailing list at AMSAT.ORG courtesy of AMSAT-NA.
To unsubscribe, send "unsubscribe sarex" to Majordomo@amsat.org
AMSAT Home